Regional Weather Roundup
Issued by NWS

Home | Current Version | Previous Version | Graphics & Text | Print | Product List | Glossary Off
Versions: 1 2 3 4 5 6 7 8 9 10 11 12 13 14 15 16 17 18 19 20 21 22 23 24 25 26 27 28 29 30 31 32 33 34 35 36 37 38 39 40 41 42 43 44 45 46 47 48 49 50

000
ASUS43 KBIS 040920
RWRND

NORTH DAKOTA REGIONAL WEATHER ROUNDUP
NATIONAL WEATHER SERVICE BISMARCK ND
400 AM CDT MON MAY 04 2015

NOTE: "FAIR" INDICATES FEW OR NO CLOUDS BELOW 12,000 FEET WITH NO
SIGNIFICANT WEATHER AND/OR OBSTRUCTIONS TO VISIBILITY.


NDZ001>003-009>011-017-041000-
NORTHWEST NORTH DAKOTA

CITY           SKY/WX    TMP DP  RH WIND       PRES   REMARKS
WILLISTON      CLEAR     32  23  69 N3        30.12S
MINOT          FLURRIES  37  26  64 SW10      30.12S
MINOT AFB      CLEAR     31  26  83 W2        30.12R
$$

NDZ018>021-031>035-040>046-041000-
SOUTHWEST NORTH DAKOTA

CITY           SKY/WX    TMP DP  RH WIND       PRES   REMARKS
BISMARCK       PTCLDY    33  24  69 CALM      30.14S
DICKINSON      MOCLDY    40  25  55 SE3       30.11S
GARRISON         N/A     34  25  69 NW5       30.13S
HETTINGER ARPT MOCLDY    32  26  78 CALM      30.13R
$$

NDZ004>008-012>016-024-026-027-054-041000-
NORTHEAST NORTH DAKOTA

CITY           SKY/WX    TMP DP  RH WIND       PRES   REMARKS
GRAND FORKS    CLEAR     35  29  78 NW5       30.12R
GRND FRKS AFB  CLEAR     38  28  68 N2        30.12R
DEVILS LAKE    CLEAR     37  28  70 CALM      30.13R
$$

NDZ022-023-025-028>030-036>039-047>053-041000-
SOUTHEAST NORTH DAKOTA

CITY           SKY/WX    TMP DP  RH WIND       PRES   REMARKS
FARGO          CLEAR     39  27  62 N10       30.10R
JAMESTOWN      PTCLDY    35  26  69 NW3       30.12R
$$




USA.gov is the U.S. government's official web portal to all federal, state and local government web resources and services.